EW4271 Weather Reports


time (UTC)temp
C
wind
direction
speed
KPH
gust
KPH
rain 1hr
cm
rain 24hr
cm
rain mn
cm
humidity
%
barometer
mb
20260901220130 23 136 1.6 4.8 0.00 0.91 0.10 51 1026.1
20260901215603 23 154 1.6 3.2 0.00 0.91 0.10 52 1026.1
20260901215137 23 157 1.6 8.0 0.00 0.91 0.10 51 1026.2
20260901214610 23 157 1.6 9.7 0.00 0.91 0.10 48 1026.2
20260901214104 23 296 4.8 9.7 0.00 0.91 0.10 45 1026.2
20260901213602 23 49 3.2 8.0 0.03 0.91 0.10 48 1026.2
20260901213116 23 136 1.6 8.0 0.03 0.91 0.10 51 1026.3
20260901212630 22 154 1.6 9.7 0.03 0.91 0.10 56 1026.4
20260901212103 21 302 1.6 9.7 0.03 0.91 0.10 62 1026.5
20260901211617 20 295 0.0 3.2 0.03 0.91 0.10 65 1026.7
20260901211111 20 91 0.0 4.8 0.03 0.91 0.10 66 1026.7
20260901210604 20 91 1.6 6.4 0.05 0.91 0.10 70 1026.8
20260901210138 19 46 1.6 6.4 0.05 0.91 0.10 74 1026.9
20260901205611 18 208 1.6 4.8 0.05 0.91 0.10 74 1027.1
20260901205108 18 355 0.0 0.0 0.05 0.91 0.10 79 1027.2
20260901204603 18 355 0.0 0.0 0.05 0.91 0.10 77 1027.3
20260901204116 18 355 0.0 0.0 0.05 0.91 0.10 77 1027.4
20260901203609 18 355 0.0 0.0 0.03 0.89 0.08 75 1027.4
20260901203103 18 302 0.0 3.2 0.03 0.89 0.08 73 1027.7
20260901202618 19 336 0.0 11.3 0.03 0.89 0.08 68 1027.7
20260901202110 19 303 4.8 11.3 0.03 0.89 0.08 63 1027.6
20260901201608 20 29 0.0 8.0 0.03 0.89 0.08 63 1027.5
20260901201102 21 312 3.2 8.0 0.03 0.89 0.08 61 1027.5
20260901200615 22 344 3.2 8.0 0.00 0.86 0.05 60 1027.3
20260901200109 22 20 3.2 9.7 0.00 0.86 0.05 52 1027.2
20260901195603 22 302 3.2 9.7 0.00 0.86 0.05 52 1027.1
20260901195116 22 338 1.6 9.7 0.00 0.86 0.05 54 1027.2
20260901194610 22 153 1.6 12.9 0.00 0.86 0.05 56 1027.2
20260901194104 22 120 4.8 12.9 0.00 0.86 0.05 56 1027.3
20260901193603 22 154 4.8 11.3 0.00 0.86 0.05 57 1027.3
20260901193117 22 24 3.2 8.0 0.00 0.86 0.05 58 1027.4
20260901192610 22 192 0.0 12.9 0.00 0.86 0.05 56 1027.5
20260901192105 22 111 4.8 12.9 0.00 0.86 0.05 60 1027.6
20260901191639 22 54 3.2 6.4 0.00 0.86 0.05 61 1027.5
20260901191111 21 302 1.6 8.0 0.00 0.86 0.05 60 1027.7
20260901190606 21 153 3.2 11.3 0.00 0.86 0.05 63 1027.8
20260901190118 21 156 3.2 14.5 0.00 0.86 0.05 63 1027.9
20260901185614 21 132 6.4 14.5 0.00 0.86 0.05 67 1028.0
20260901185108 20 186 3.2 11.3 0.00 0.86 0.05 68 1028.0
20260901184605 20 175 1.6 12.9 0.00 0.86 0.05 69 1028.0
20260901184119 20 153 3.2 8.0 0.00 0.86 0.05 70 1028.1
20260901183633 20 160 0.0 9.7 0.00 0.86 0.05 71 1028.1
20260901183126 19 159 0.0 6.4 0.00 0.86 0.05 73 1028.3
20260901182619 19 160 1.6 6.4 0.00 0.86 0.05 74 1028.3
20260901182113 18 155 3.2 9.7 0.00 0.86 0.05 76 1028.3
20260901181607 18 144 3.2 9.7 0.00 0.86 0.05 77 1028.3
20260901181121 18 90 0.0 3.2 0.00 0.86 0.05 79 1028.3
20260901180615 18 90 0.0 1.6 0.00 0.86 0.05 78 1028.4
20260901180133 18 90 0.0 3.2 0.00 0.86 0.05 79 1028.4
20260901175607 18 90 1.6 3.2 0.00 0.86 0.05 77 1028.5
20260901175102 18 16 0.0 6.4 0.00 0.86 0.05 76 1028.7
20260901174615 18 142 1.6 6.4 0.00 0.86 0.05 77 1028.8
20260901174109 18 144 1.6 6.4 0.00 0.86 0.05 76 1028.9
20260901173603 18 144 1.6 6.4 0.00 0.86 0.05 75 1028.9
20260901173138 18 147 1.6 4.8 0.00 0.86 0.05 75 1028.8
20260901172610 18 193 0.0 4.8 0.00 0.86 0.05 74 1028.8
20260901172105 18 142 0.0 3.2 0.00 0.86 0.05 76 1028.7
20260901171601 18 142 0.0 4.8 0.00 0.86 0.05 76 1028.8
20260901171116 18 142 0.0 4.8 0.00 0.86 0.05 75 1028.7
20260901170629 18 130 1.6 4.8 0.00 0.86 0.05 76 1028.8
20260901165616 18 146 0.0 9.7 0.00 0.86 0.05 77 1028.8
20260901165110 18 149 1.6 9.7 0.00 0.86 0.05 80 1028.8
20260901164603 17 46 0.0 8.0 0.00 0.86 0.05 82 1028.7
20260901164137 17 157 1.6 8.0 0.00 0.86 0.05 84 1028.7
20260901163610 17 58 1.6 4.8 0.00 0.86 0.05 84 1028.7
20260901163108 17 198 0.0 3.2 0.00 0.86 0.05 86 1028.6
20260901162602 17 61 1.6 4.8 0.00 0.86 0.05 86 1028.6
20260901162115 17 34 1.6 8.0 0.00 0.86 0.05 85 1028.4
20260901161609 17 171 3.2 8.0 0.00 0.86 0.05 87 1028.5
20260901161103 16 112 0.0 3.2 0.00 0.86 0.05 88 1028.4
20260901160617 16 143 0.0 3.2 0.00 0.86 0.05 90 1028.3
20260901160131 16 138 0.0 3.2 0.00 0.86 0.05 88 1028.2
20260901155604 16 173 0.0 1.6 0.00 0.86 0.05 91 1028.2
20260901155140 16 173 0.0 0.0 0.00 0.86 0.05 92 1028.2
20260901154617 16 173 0.0 1.6 0.00 0.86 0.05 93 1028.2
20260901154112 15 173 0.0 3.2 0.00 0.86 0.05 93 1028.2
20260901153626 15 328 0.0 1.6 0.00 0.86 0.05 94 1028.3
20260901153119 15 328 0.0 0.0 0.00 0.86 0.05 94 1028.3
20260901152613 15 328 0.0 0.0 0.00 0.86 0.05 94 1028.3
20260901152107 15 328 0.0 0.0 0.00 0.86 0.05 94 1028.3
20260901151602 15 328 0.0 0.0 0.00 0.86 0.05 95 1028.2
20260901151115 15 328 0.0 0.0 0.00 0.86 0.05 95 1028.2
20260901150613 15 328 0.0 0.0 0.00 0.86 0.05 95 1028.2
20260901150107 15 328 0.0 0.0 0.00 0.86 0.05 95 1028.1
20260901145620 14 328 0.0 0.0 0.00 0.86 0.05 95 1028.3
20260901145114 15 328 0.0 0.0 0.00 0.86 0.05 95 1028.1
20260901144608 15 328 0.0 0.0 0.00 0.86 0.05 95 1028.1
20260901144102 14 328 0.0 0.0 0.00 0.86 0.05 95 1028.1
20260901143617 14 328 0.0 0.0 0.00 0.86 0.05 95 1028.1
20260901143111 14 328 0.0 0.0 0.00 0.86 0.05 95 1028.0
20260901142608 14 328 0.0 0.0 0.00 0.86 0.05 95 1027.9
20260901142104 14 328 0.0 0.0 0.00 0.86 0.05 95 1027.9
20260901141616 14 328 0.0 0.0 0.00 0.86 0.05 95 1027.9
20260901141110 14 328 0.0 0.0 0.00 0.86 0.05 95 1028.0
20260901140604 13 328 0.0 0.0 0.00 0.86 0.05 95 1028.0
20260901140140 13 328 0.0 0.0 0.00 0.86 0.05 95 1028.0
20260901135633 13 328 0.0 0.0 0.00 0.86 0.05 95 1028.0
20260901135106 13 328 0.0 0.0 0.00 0.86 0.05 95 1028.1
20260901134604 13 328 0.0 1.6 0.00 0.86 0.05 95 1028.2
20260901134118 13 328 0.0 1.6 0.00 0.86 0.05 95 1028.1
20260901133613 13 328 0.0 0.0 0.00 0.86 0.05 94 1028.0
20260901133107 13 328 0.0 0.0 0.00 0.86 0.05 94 1028.0
20260901132621 13 328 0.0 0.0 0.00 0.86 0.05 94 1028.0
20260901132135 13 328 0.0 0.0 0.00 0.86 0.05 95 1027.9
20260901131607 13 328 0.0 0.0 0.00 0.86 0.05 94 1027.8
20260901131101 13 328 0.0 0.0 0.00 0.86 0.05 94 1027.7
20260901130615 13 328 0.0 0.0 0.00 0.86 0.05 94 1027.5
20260901130113 13 328 0.0 0.0 0.00 0.86 0.05 94 1027.6
20260901125607 13 328 0.0 0.0 0.00 0.86 0.05 94 1027.7
20260901125102 13 328 0.0 0.0 0.03 0.86 0.05 94 1027.6
20260901124636 13 328 0.0 0.0 0.03 0.86 0.05 94 1027.6
20260901124108 13 328 0.0 0.0 0.03 0.86 0.05 94 1027.6
20260901123602 13 328 0.0 0.0 0.03 0.86 0.05 94 1027.5
20260901123116 13 328 0.0 0.0 0.03 0.86 0.05 94 1027.6
20260901122610 13 328 0.0 0.0 0.05 0.86 0.05 94 1027.7
20260901122108 13 328 0.0 0.0 0.05 0.86 0.05 94 1027.7
20260901121602 13 328 0.0 0.0 0.05 0.86 0.05 94 1027.7
20260901121116 13 328 0.0 0.0 0.05 0.86 0.05 94 1027.8
20260901120630 14 328 0.0 0.0 0.05 0.86 0.05 94 1027.8
20260901115618 14 328 0.0 0.0 0.05 0.86 0.05 94 1028.0
20260901115111 14 328 0.0 0.0 0.03 0.84 0.03 94 1028.1
20260901114605 14 328 0.0 0.0 0.03 0.84 0.03 94 1028.1
20260901114103 14 328 0.0 0.0 0.03 0.84 0.03 94 1028.1
20260901113617 14 328 0.0 0.0 0.03 0.84 0.03 94 1028.0
20260901113111 15 328 0.0 0.0 0.03 0.84 0.03 94 1028.1
20260901112604 15 328 0.0 0.0 0.00 0.81 0.00 94 1028.0
20260901112119 15 328 0.0 0.0 0.00 0.81 0.00 94 1027.9
20260901111612 15 328 0.0 0.0 0.00 0.81 0.00 94 1027.9
20260901111106 15 328 0.0 0.0 0.00 0.81 0.00 94 1028.0
20260901110605 15 328 0.0 0.0 0.00 0.81 0.00 94 1028.0
20260901110118 15 328 0.0 0.0 0.00 0.81 0.00 94 1027.9
20260901105611 15 328 0.0 0.0 0.00 0.81 0.00 94 1027.9
20260901105104 15 328 0.0 0.0 0.00 0.81 0.00 94 1027.8
20260901104618 15 328 0.0 0.0 0.00 0.81 0.00 94 1027.7
20260901104113 15 328 0.0 0.0 0.00 0.81 0.00 94 1027.7
20260901103607 15 328 0.0 0.0 0.00 0.81 0.00 94 1027.7
20260901103101 15 328 0.0 0.0 0.00 0.81 0.00 94 1027.8
20260901102615 15 328 0.0 0.0 0.00 0.81 0.00 94 1027.8
20260901102113 15 328 0.0 0.0 0.00 0.81 0.00 94 1027.7
20260901101608 15 328 0.0 0.0 0.00 0.81 0.00 94 1027.8
20260901101102 15 328 0.0 0.0 0.00 0.81 0.00 94 1027.9
20260901100615 15 328 0.0 0.0 0.00 0.81 0.00 94 1028.1
20260901100129 15 328 0.0 0.0 0.00 0.81 0.00 94 1028.1
20260901095602 15 328 0.0 0.0 0.00 0.81 0.00 94 1028.2
20260901095116 15 328 0.0 0.0 0.00 0.81 0.00 94 1028.1
20260901094610 15 328 0.0 0.0 0.00 0.81 0.00 94 1028.3
20260901094107 15 328 0.0 0.0 0.00 0.81 0.00 94 1028.3
20260901093602 15 328 0.0 0.0 0.00 0.81 0.00 94 1028.4
20260901093115 15 328 0.0 0.0 0.00 0.81 0.00 94 1028.5
20260901092630 14 328 0.0 0.0 0.00 0.81 0.00 94 1028.4
20260901092102 14 328 0.0 0.0 0.00 0.81 0.00 94 1028.5
20260901091615 14 328 0.0 1.6 0.00 0.81 0.00 94 1028.4
20260901091108 14 328 0.0 1.6 0.00 0.81 0.00 94 1028.4
20260901090602 14 319 0.0 0.0 0.00 0.81 0.00 93 1028.3
20260901090116 14 169 0.0 0.0 0.00 0.81 0.00 93 1028.3
20260901085630 14 169 0.0 0.0 0.00 0.81 0.00 93 1028.0
20260901085107 14 169 0.0 0.0 0.00 0.81 0.00 93 1027.8
20260901084603 14 169 0.0 0.0 0.00 0.81 0.00 93 1027.6
20260901084118 14 169 0.0 0.0 0.00 0.81 0.00 94 1027.6
20260901083612 14 169 0.0 0.0 0.00 0.81 0.00 94 1027.5
20260901083106 14 169 0.0 0.0 0.00 0.81 0.00 94 1027.5
20260901082620 14 169 0.0 0.0 0.00 0.81 0.00 94 1027.4
20260901082113 14 169 0.0 0.0 0.00 0.81 0.00 94 1027.3
20260901081613 14 169 0.0 0.0 0.00 0.81 0.00 93 1027.3
20260901081106 14 169 0.0 0.0 0.00 0.81 0.00 93 1027.4
20260901080620 14 169 0.0 0.0 0.00 0.81 0.00 94 1027.5
20260901080114 14 169 0.0 0.0 0.00 0.81 0.00 94 1027.6
20260901075608 14 169 0.0 0.0 0.00 0.81 0.00 94 1027.6
20260901075101 14 169 0.0 0.0 0.00 0.81 0.00 94 1027.6
20260901074615 14 169 0.0 0.0 0.00 0.81 0.00 94 1027.6
20260901074108 14 169 0.0 0.0 0.00 0.81 0.00 94 1027.6
20260901073623 14 169 0.0 0.0 0.00 0.81 0.00 94 1027.7
20260901073101 14 169 0.0 0.0 0.00 0.81 0.00 94 1027.7
20260901072614 14 169 0.0 0.0 0.00 0.81 0.00 94 1027.7
20260901072109 14 169 0.0 0.0 0.00 0.81 0.00 94 1027.8
20260901071603 14 169 0.0 0.0 0.00 0.81 0.00 94 1027.7
20260901071136 14 169 0.0 0.0 0.00 0.81 0.00 94 1027.7
20260901070610 14 169 0.0 0.0 0.00 0.81 0.00 93 1027.5
20260901070105 14 169 0.0 0.0 0.00 0.81 0.00 93 1027.6
20260901065618 14 169 0.0 0.0 0.03 0.81 0.00 93 1027.7
20260901065107 14 169 0.0 0.0 0.03 0.81 0.00 93 1027.6
20260901064605 14 169 0.0 0.0 0.03 0.81 0.00 93 1027.6
20260901064139 15 169 0.0 0.0 0.03 0.81 0.00 93 1027.5
20260901063611 15 169 0.0 0.0 0.03 0.81 0.00 93 1027.4
20260901063105 15 169 0.0 0.0 0.03 0.81 0.81 93 1027.4
20260901062618 15 169 0.0 0.0 0.03 0.81 0.81 93 1027.4
20260901062112 15 169 0.0 0.0 0.03 0.81 0.81 93 1027.4
20260901061607 15 169 0.0 0.0 0.03 0.81 0.81 93 1027.4
20260901061101 15 169 0.0 0.0 0.03 0.81 0.81 93 1027.4
20260901060619 15 169 0.0 0.0 0.03 0.81 0.81 93 1027.4
20260901060112 15 169 0.0 0.0 0.03 0.81 0.81 93 1027.5
20260901055627 15 169 0.0 0.0 0.00 0.79 0.79 93 1027.5
20260901055120 15 169 0.0 0.0 0.00 0.79 0.79 93 1027.6
20260901054635 15 169 0.0 0.0 0.00 0.79 0.79 93 1027.5
20260901054108 15 169 0.0 0.0 0.00 0.79 0.79 93 1027.6
20260901053603 15 169 0.0 0.0 0.00 0.79 0.79 93 1027.6
20260901053115 15 169 0.0 0.0 0.00 0.79 0.79 93 1027.6
20260901052609 15 169 0.0 0.0 0.00 0.79 0.79 93 1027.9
20260901052107 15 169 0.0 0.0 0.00 0.79 0.79 93 1027.9
20260901051621 15 169 0.0 0.0 0.00 0.79 0.79 93 1027.8
20260901051114 15 169 0.0 0.0 0.00 0.79 0.79 93 1027.5
20260901050608 15 169 0.0 0.0 0.00 0.79 0.79 93 1027.6
20260901050100 15 169 0.0 0.0 0.00 0.79 0.79 93 1027.9
20260901045635 15 169 0.0 0.0 0.00 0.79 0.79 93 1028.3
20260901045107 15 169 0.0 0.0 0.00 0.79 0.79 93 1028.2
20260901044637 15 169 0.0 0.0 0.00 0.79 0.79 93 1028.2
20260901044108 15 169 0.0 0.0 0.00 0.79 0.79 93 1028.1
20260901043607 15 169 0.0 0.0 0.00 0.79 0.79 93 1028.2
20260901043119 15 169 0.0 0.0 0.00 0.79 0.79 93 1028.2
20260901042634 15 169 0.0 0.0 0.00 0.79 0.79 93 1028.3
20260901042107 15 169 0.0 0.0 0.00 0.79 0.79 93 1028.3
20260901041601 15 169 0.0 0.0 0.00 0.79 0.79 93 1028.4
20260901041115 15 169 0.0 0.0 0.00 0.79 0.79 93 1028.5
20260901040610 15 169 0.0 0.0 0.00 0.79 0.79 93 1028.5
20260901040123 15 169 0.0 0.0 0.00 0.79 0.79 94 1028.5
20260901035616 15 169 0.0 0.0 0.00 0.79 0.79 93 1028.3
20260901035130 15 169 0.0 0.0 0.00 0.79 0.79 93 1028.5
20260901034607 15 169 0.0 0.0 0.00 0.79 0.79 93 1028.5
20260901034120 15 169 0.0 0.0 0.00 0.79 0.79 93 1028.5
20260901033633 15 169 0.0 0.0 0.00 0.79 0.79 93 1028.4
20260901033127 15 169 0.0 0.0 0.00 0.79 0.79 93 1028.3
20260901032601 15 169 0.0 0.0 0.00 0.79 0.79 93 1028.2
20260901032115 15 169 0.0 0.0 0.00 0.79 0.79 93 1028.1
20260901031629 15 169 0.0 0.0 0.00 0.79 0.79 92 1027.7
20260901031102 15 169 0.0 0.0 0.00 0.79 0.79 92 1027.6
20260901030617 15 169 0.0 0.0 0.00 0.79 0.79 92 1027.4
20260901030130 15 169 0.0 0.0 0.00 0.79 0.79 92 1027.4
20260901025606 15 169 0.0 0.0 0.00 0.79 0.79 92 1027.4
20260901025140 15 169 0.0 0.0 0.00 0.79 0.79 92 1027.3
20260901024612 15 169 0.0 0.0 0.00 0.79 0.79 92 1027.3
20260901024106 15 169 0.0 0.0 0.00 0.79 0.79 92 1027.4
20260901023600 15 169 0.0 0.0 0.00 0.79 0.79 92 1027.1
20260901023114 15 169 0.0 0.0 0.00 0.79 0.79 91 1027.1
20260901022609 16 169 0.0 0.0 0.00 0.79 0.79 91 1027.2
20260901022124 16 169 0.0 0.0 0.03 0.79 0.79 91 1027.4
20260901021601 16 169 0.0 0.0 0.03 0.79 0.79 91 1027.3
20260901021115 16 169 0.0 0.0 0.03 0.79 0.79 91 1027.4
20260901020629 16 169 0.0 0.0 0.03 0.79 0.79 90 1027.4
20260901020123 16 169 0.0 0.0 0.03 0.79 0.79 90 1027.4
20260901015616 16 169 0.0 0.0 0.03 0.79 0.79 90 1027.5
20260901015109 16 169 0.0 0.0 0.03 0.79 0.79 90 1027.6
20260901014604 16 169 0.0 0.0 0.03 0.79 0.79 89 1027.7
20260901014117 16 169 0.0 0.0 0.03 0.79 0.79 89 1027.6
20260901013611 16 169 0.0 0.0 0.03 0.79 0.79 89 1027.6
20260901013104 16 169 0.0 0.0 0.03 0.79 0.79 88 1027.7
20260901012602 16 169 0.0 0.0 0.03 0.79 0.79 88 1027.7
20260901012117 16 169 0.0 0.0 0.00 0.76 0.76 87 1027.5
20260901011610 16 169 0.0 0.0 0.00 0.76 0.76 86 1027.4
20260901011103 17 169 0.0 0.0 0.00 0.76 0.76 86 1027.3
20260901010618 17 169 0.0 1.6 0.00 0.76 0.76 87 1027.2
20260901010112 17 170 0.0 1.6 0.00 0.76 0.76 90 1027.1
20260901005606 17 162 0.0 1.6 0.00 0.76 0.76 91 1027.0
20260901005103 17 162 0.0 1.6 0.00 0.76 0.76 91 1026.9
20260901004617 17 162 0.0 0.0 0.00 0.76 0.76 91 1026.8
20260901004131 17 162 0.0 0.0 0.00 0.76 0.76 91 1026.8
20260901003603 17 162 0.0 0.0 0.03 0.76 0.76 91 1026.8
20260901003117 17 162 0.0 0.0 0.03 0.76 0.76 90 1026.8
20260901002610 17 162 0.0 0.0 0.05 0.76 0.76 90 1026.7
20260901002104 17 231 0.0 1.6 0.46 0.76 0.76 90 1026.6
20260901001618 17 232 0.0 3.2 0.76 0.76 0.76 90 1026.6
20260901001110 17 231 1.6 3.2 0.76 0.76 0.76 91 1026.6
20260901000609 17 231 0.0 0.0 0.76 0.76 0.76 89 1026.5
20260831235617 17 231 0.0 1.6 0.76 0.76 0.76 89 1026.3
20260831235111 17 213 0.0 0.0 0.76 0.76 0.76 86 1026.0
20260831234604 17 213 0.0 0.0 0.76 0.76 0.76 85 1026.0
20260831234118 17 213 0.0 1.6 0.76 0.76 0.76 82 1026.0
20260831233633 17 213 0.0 1.6 0.74 0.74 0.74 80 1026.0
20260831233106 18 213 0.0 4.8 0.74 0.74 0.74 71 1025.9
20260831232625 20 212 3.2 4.8 0.71 0.71 0.71 67 1026.2
20260831232138 22 209 0.0 9.7 0.30 0.30 0.30 66 1025.5
20260831231610 22 38 4.8 12.9 0.00 0.00 0.00 54 1025.0
20260831231105 22 30 4.8 12.9 0.00 0.00 0.00 52 1024.7
20260831230618 23 34 6.4 11.3 0.00 0.00 0.00 51 1024.8
20260831230110 23 57 4.8 8.0 0.00 0.00 0.00 49 1024.9
20260831225604 23 198 0.0 17.7 0.00 0.00 0.00 52 1025.1
20260831225118 23 116 3.2 14.5 0.00 0.00 0.00 47 1025.0
20260831224612 24 25 4.8 24.1 0.00 0.00 0.00 44 1024.9
20260831224125 25 5 6.4 24.1 0.00 0.00 0.00 43 1024.8
20260831223602 25 91 3.2 11.3 0.00 0.00 0.00 43 1024.8
20260831223115 25 130 3.2 11.3 0.00 0.00 0.00 41 1025.0
20260831222609 26 141 3.2 11.3 0.00 0.00 0.00 40 1025.0
20260831222103 26 153 4.8 9.7 0.00 0.00 0.00 40 1025.0
20260831221617 26 86 1.6 8.0 0.00 0.00 0.00 38 1024.9
20260831221111 27 69 3.2 6.4 0.00 0.00 0.00 39 1025.0
20260831220624 27 140 3.2 11.3 0.00 0.00 0.00 35 1025.0